Goodyear, AZ

7:51 AM MST on May 26, 2015 (GMT -0700)
Goodyear - I-10 & Estrella Pkwy. | | Change Station
CLOSE
Current Station
Personal Weather Station
Location: Goodyear, AZ
Elevation: 1004 ft
Nearby Weather Stations

Elev 1004 ft 33.46 °N, 112.40 °W | Updated 12 seconds ago

Partly Cloudy
Partly Cloudy
79.3 °F
Feels Like 77 °F
N
0.0
Wind Variable Wind from North
Gusts 0.0 mph

Today
High -- | Low -- °F
--% Chance of Precip.
Yesterday
High -- | Low -- °F
Precip. -- in
5:22 AM 7:30 PM
First Quarter, 58% visible
Pressure 29.96 in
Visibility 10.0 miles
Clouds Few 25000 ft
Heat Index 77 °F
Dew Point Not available.
Humidity Not available.
Rainfall 0.00 in
Snow Depth Not available.
UV 2 out of 12
Pollen 4.70 out of 12
Air Quality Not available.
Flu Activity Local Activity
METAR KGYR 261447Z VRB04KT 10SM FEW250 24/04 A2996

More Conditions Fewer Conditions

Pressure 29.96 in
Visibility 10.0 miles
Clouds Few 25000 ft
Heat Index 77 °F
Dew Point Not available.
Humidity Not available.
Rainfall 0.00 in
Snow Depth Not available.
UV 2 out of 12
Pollen 4.70 out of 12
Air Quality Not available.
Flu Activity Local Activity
METAR KGYR 261447Z VRB04KT 10SM FEW250 24/04 A2996

More Conditions Fewer Conditions

10-Day Weather Forecast

Almanac

Astronomy

May. 26, 2015 Rise Set
Actual Time
Civil Twilight
Nautical Twilight
Astronomical Twilight
Moon
Length of Visible Light
Length of Day
Tomorrow will be .
, % of the Moon is Illuminated

Today's Extremes

State Highs State Lows

Community

WunderPhotos

Upload Photos

1,824,344 photos uploaded!

WunderBlogs® & News

Nearby

Air Quality

  Air Quality AQ Index Pollutant
Not available.

Snow Depth

Station Depth Elevation

Earthquake Activity

City Distance Mag. Time & Date
Minimum magnitude displayed is 2.5.

Coastal Water Temperatures

Place Temperature

Stations

Nearby Weather Stations

Station Location Temp. Windchill Dew Point Humidity Wind Precip. Elev Updated Type